TimeCDT,TemperatureF,Dew PointF,Humidity,Sea Level PressureIn,VisibilityMPH,Wind Direction,Wind SpeedMPH,Gust SpeedMPH,PrecipitationIn,Events,Conditions,WindDirDegrees,DateUTC
12:15 AM,58.3,46.8,66,30.01,10.0,North,3.5,-,N/A,,Overcast,350,2013-05-06 05:15:00
12:35 AM,58.1,47.3,67,30.01,10.0,Calm,Calm,-,N/A,,Overcast,0,2013-05-06 05:35:00
12:55 AM,57.2,47.8,71,30.01,10.0,North,3.5,-,N/A,,Overcast,10,2013-05-06 05:55:00
1:15 AM,56.8,47.7,71,30.00,10.0,North,3.5,-,N/A,,Overcast,360,2013-05-06 06:15:00
1:35 AM,56.7,46.9,70,29.99,10.0,North,3.5,-,N/A,,Mostly Cloudy,360,2013-05-06 06:35:00
1:55 AM,56.5,46.6,69,29.99,10.0,Calm,Calm,-,N/A,,Mostly Cloudy,0,2013-05-06 06:55:00
2:15 AM,55.9,47.3,73,29.98,10.0,North,3.5,-,N/A,,Mostly Cloudy,350,2013-05-06 07:15:00
2:35 AM,56.3,46.0,68,29.98,10.0,North,4.6,-,N/A,,Overcast,10,2013-05-06 07:35:00
2:55 AM,55.6,46.4,71,29.98,10.0,Calm,Calm,-,N/A,,Mostly Cloudy,0,2013-05-06 07:55:00
3:15 AM,56.3,45.5,67,29.98,10.0,NNE,3.5,-,N/A,,Overcast,20,2013-05-06 08:15:00
3:35 AM,55.6,45.7,69,29.97,10.0,Calm,Calm,-,N/A,,Mostly Cloudy,0,2013-05-06 08:35:00
3:55 AM,55.2,45.9,71,29.97,10.0,Calm,Calm,-,N/A,,Scattered Clouds,0,2013-05-06 08:55:00
4:15 AM,55.0,45.7,71,29.98,10.0,Calm,Calm,-,N/A,,Mostly Cloudy,0,2013-05-06 09:15:00
4:35 AM,54.5,46.4,74,29.98,10.0,Calm,Calm,-,N/A,,Overcast,0,2013-05-06 09:35:00
4:55 AM,54.9,45.9,72,29.98,10.0,Calm,Calm,-,N/A,,Overcast,0,2013-05-06 09:55:00
5:15 AM,55.2,45.5,70,29.98,10.0,North,3.5,-,N/A,,Overcast,360,2013-05-06 10:15:00
5:35 AM,55.4,45.3,69,29.98,10.0,North,4.6,-,N/A,,Overcast,360,2013-05-06 10:35:00
5:55 AM,55.0,45.5,70,29.99,10.0,North,4.6,-,N/A,,Overcast,350,2013-05-06 10:55:00
6:15 AM,54.9,46.2,73,29.99,10.0,North,4.6,-,N/A,,Overcast,360,2013-05-06 11:15:00
6:35 AM,55.4,45.5,69,30.00,10.0,North,4.6,-,N/A,,Overcast,360,2013-05-06 11:35:00
6:55 AM,55.9,45.7,68,30.01,10.0,Calm,Calm,-,N/A,,Mostly Cloudy,0,2013-05-06 11:55:00
7:15 AM,57.2,46.2,67,30.01,10.0,NNE,3.5,-,N/A,,Scattered Clouds,20,2013-05-06 12:15:00
7:35 AM,58.1,45.5,63,30.01,10.0,NNE,4.6,-,N/A,,Clear,20,2013-05-06 12:35:00
7:55 AM,59.0,44.4,58,30.01,10.0,NNE,4.6,-,N/A,,Scattered Clouds,20,2013-05-06 12:55:00
8:15 AM,59.5,44.1,57,30.01,10.0,North,4.6,-,N/A,,Scattered Clouds,10,2013-05-06 13:15:00
8:35 AM,61.0,44.2,54,30.02,10.0,NNE,3.5,-,N/A,,Scattered Clouds,30,2013-05-06 13:35:00
8:55 AM,62.1,44.4,52,30.02,10.0,NNE,6.9,-,N/A,,Clear,30,2013-05-06 13:55:00
9:15 AM,64.0,43.5,47,30.02,10.0,NNE,5.8,-,N/A,,Scattered Clouds,20,2013-05-06 14:15:00
9:35 AM,65.7,42.4,43,30.02,10.0,NNE,8.1,-,N/A,,Clear,30,2013-05-06 14:35:00
9:55 AM,65.7,41.7,42,30.02,10.0,NE,5.8,-,N/A,,Scattered Clouds,50,2013-05-06 14:55:00
10:15 AM,66.9,41.9,40,30.03,10.0,ENE,6.9,-,N/A,,Scattered Clouds,60,2013-05-06 15:15:00
10:35 AM,68.0,41.0,37,30.02,10.0,NE,6.9,-,N/A,,Scattered Clouds,50,2013-05-06 15:35:00
10:55 AM,70.2,41.7,36,30.02,10.0,NE,8.1,-,N/A,,Clear,50,2013-05-06 15:55:00
11:15 AM,71.6,41.7,34,30.01,10.0,NE,8.1,-,N/A,,Clear,50,2013-05-06 16:15:00
11:35 AM,71.6,40.6,33,30.01,10.0,NNE,6.9,-,N/A,,Clear,30,2013-05-06 16:35:00
11:55 AM,71.8,40.6,32,30.00,10.0,NNE,6.9,-,N/A,,Clear,30,2013-05-06 16:55:00
12:15 PM,72.5,41.0,32,29.99,10.0,NE,6.9,-,N/A,,Clear,40,2013-05-06 17:15:00
12:35 PM,72.5,40.5,31,29.99,10.0,NE,8.1,-,N/A,,Clear,40,2013-05-06 17:35:00
12:55 PM,72.7,39.0,29,29.99,10.0,NE,10.4,-,N/A,,Clear,50,2013-05-06 17:55:00
1:15 PM,73.6,39.2,29,29.98,10.0,NE,6.9,-,N/A,,Clear,40,2013-05-06 18:15:00
1:35 PM,73.6,37.6,27,29.98,10.0,NE,4.6,-,N/A,,Clear,40,2013-05-06 18:35:00
1:55 PM,74.3,37.8,27,29.98,10.0,ENE,8.1,-,N/A,,Clear,70,2013-05-06 18:55:00
2:15 PM,74.7,37.9,26,29.97,10.0,ENE,9.2,-,N/A,,Clear,60,2013-05-06 19:15:00
2:35 PM,75.6,35.4,23,29.97,10.0,East,11.5,-,N/A,,Clear,80,2013-05-06 19:35:00
2:55 PM,76.1,33.4,21,29.97,10.0,NE,5.8,17.3,N/A,,Clear,50,2013-05-06 19:55:00
3:15 PM,75.7,31.1,19,29.97,10.0,ENE,15.0,18.4,N/A,,Clear,70,2013-05-06 20:15:00
3:35 PM,76.5,31.6,19,29.96,10.0,NE,9.2,17.3,N/A,,Clear,50,2013-05-06 20:35:00
3:55 PM,76.1,30.6,19,29.96,10.0,NE,9.2,-,N/A,,Clear,50,2013-05-06 20:55:00
4:15 PM,76.3,31.1,19,29.96,10.0,NNE,6.9,16.1,N/A,,Clear,30,2013-05-06 21:15:00
4:35 PM,75.2,29.7,19,29.96,10.0,ENE,11.5,-,N/A,,Clear,70,2013-05-06 21:35:00
4:55 PM,74.8,30.2,19,29.96,10.0,ENE,6.9,-,N/A,,Clear,60,2013-05-06 21:55:00
5:15 PM,74.3,29.3,19,29.96,10.0,ENE,6.9,-,N/A,,Clear,60,2013-05-06 22:15:00
5:35 PM,73.4,28.6,19,29.96,10.0,NE,8.1,-,N/A,,Clear,50,2013-05-06 22:35:00
5:55 PM,73.4,25.5,17,29.96,10.0,NE,5.8,-,N/A,,Clear,50,2013-05-06 22:55:00
6:15 PM,72.9,31.6,22,29.96,10.0,ENE,5.8,-,N/A,,Clear,60,2013-05-06 23:15:00
6:35 PM,72.7,26.8,18,29.96,10.0,NNE,6.9,-,N/A,,Clear,30,2013-05-06 23:35:00
6:55 PM,71.6,26.1,18,29.97,10.0,NE,4.6,-,N/A,,Clear,40,2013-05-06 23:55:00
7:15 PM,70.5,30.7,23,29.97,10.0,NNE,4.6,-,N/A,,Clear,30,2013-05-07 00:15:00
7:35 PM,69.1,31.8,25,29.98,10.0,NNE,3.5,-,N/A,,Clear,30,2013-05-07 00:35:00
7:55 PM,67.3,31.8,27,29.98,10.0,NNE,3.5,-,N/A,,Clear,30,2013-05-07 00:55:00
8:15 PM,66.4,32.0,28,29.99,10.0,Calm,Calm,-,N/A,,Clear,0,2013-05-07 01:15:00
8:35 PM,64.2,34.9,34,29.99,10.0,Calm,Calm,-,N/A,,Clear,0,2013-05-07 01:35:00
8:55 PM,64.0,34.7,34,30.00,10.0,Calm,Calm,-,N/A,,Clear,0,2013-05-07 01:55:00
9:15 PM,62.2,36.0,38,30.01,10.0,NE,3.5,-,N/A,,Clear,50,2013-05-07 02:15:00
9:35 PM,61.9,36.1,38,30.01,10.0,ENE,4.6,-,N/A,,Clear,60,2013-05-07 02:35:00
9:55 PM,61.5,36.3,39,30.02,10.0,ENE,5.8,-,N/A,,Scattered Clouds,70,2013-05-07 02:55:00
10:15 PM,59.9,36.9,42,30.02,10.0,ENE,4.6,-,N/A,,Mostly Cloudy,70,2013-05-07 03:15:00
10:35 PM,60.3,36.1,41,30.02,10.0,Calm,Calm,-,N/A,,Scattered Clouds,0,2013-05-07 03:35:00
10:55 PM,59.5,36.7,43,30.02,10.0,Calm,Calm,-,N/A,,Clear,0,2013-05-07 03:55:00
11:15 PM,59.0,37.0,44,30.02,10.0,Calm,Calm,-,N/A,,Clear,0,2013-05-07 04:15:00
11:35 PM,57.6,38.3,49,30.02,10.0,Calm,Calm,-,N/A,,Clear,0,2013-05-07 04:35:00
11:55 PM,55.6,39.4,55,30.02,10.0,Calm,Calm,-,N/A,,Clear,0,2013-05-07 04:55:00